,,PA_Meas_PMT16A,,PR_Meas_QMR101_102,,RH_Meas_QMH101,,SR_Meas_QMS101,,TA_Meas_QMH101,,GenWind,,GenWind,
time,status,PA,status,PR,status,RH,status,SR,status,TA,status,DirAvg,status,SpdAvg,
2012-01-28, 00:00:04,VALID,917.277,VALID,0,VALID,96.299,VALID,0,VALID,20.4423,VALID,12,VALID,0.303906,
2012-01-28, 00:01:04,VALID,917.278,VALID,0,VALID,96.2761,VALID,0,VALID,20.4228,VALID,12,VALID,0.464453,
2012-01-28, 00:02:04,VALID,917.235,VALID,0,VALID,96.3524,VALID,0,VALID,20.4634,VALID,12,VALID,0.569531,
2012-01-28, 00:03:04,VALID,917.24,VALID,0,VALID,96.3524,VALID,0,VALID,20.4813,VALID,12,VALID,0.7375,
2012-01-28, 00:04:04,VALID,917.24,VALID,0,VALID,96.3295,VALID,0,VALID,20.4813,VALID,12,VALID,0.651563,
2012-01-28, 00:05:04,VALID,917.235,VALID,0,VALID,96.3219,VALID,0,VALID,20.4829,VALID,12,VALID,0.432813,
2012-01-28, 00:06:04,VALID,917.197,VALID,0,VALID,96.3219,VALID,0,VALID,20.4813,VALID,12,VALID,0.601172,
2012-01-28, 00:07:04,VALID,917.139,VALID,0,VALID,96.2685,VALID,0,VALID,20.5009,VALID,12,VALID,0.608984,
2012-01-28, 00:08:04,VALID,917.125,VALID,0,VALID,96.2304,VALID,0,VALID,20.5009,VALID,12,VALID,0.783984,
2012-01-28, 00:09:04,VALID,917.091,VALID,0,VALID,96.2456,VALID,0,VALID,20.5009,VALID,12,VALID,0.383203,
2012-01-28, 00:10:04,VALID,917.079,VALID,0,VALID,96.177,VALID,0,VALID,20.5009,VALID,12,VALID,1.09687,
2012-01-28, 00:11:04,VALID,917.077,VALID,0,VALID,96.1084,VALID,0,VALID,20.5009,VALID,12,VALID,0.817969,
2012-01-28, 00:12:04,VALID,917.074,VALID,0,VALID,96.0779,VALID,0,VALID,20.5009,VALID,12,VALID,0.642578,
2012-01-28, 00:13:04,VALID,917.034,VALID,0,VALID,96.0474,VALID,0,VALID,20.5219,VALID,12,VALID,0.723437,
2012-01-28, 00:14:04,VALID,917.047,VALID,0,VALID,95.9636,VALID,0,VALID,20.4993,VALID,11,VALID,1.17031,
2012-01-28, 00:15:04,VALID,917.039,VALID,0,VALID,95.9331,VALID,0,VALID,20.5399,VALID,11,VALID,0.527734,
2012-01-28, 00:16:04,VALID,917.02,VALID,0,VALID,95.8797,VALID,0,VALID,20.5399,VALID,11,VALID,0.340234,
2012-01-28, 00:17:04,VALID,917.026,VALID,0,VALID,95.8187,VALID,0,VALID,20.5204,VALID,11,VALID,0.584375,
2012-01-28, 00:18:04,VALID,916.981,VALID,0,VALID,95.8187,VALID,0,VALID,20.5594,VALID,11,VALID,0.711328,
2012-01-28, 00:19:04,VALID,917,VALID,0,VALID,95.7577,VALID,0,VALID,20.5399,VALID,11,VALID,0.241016,
2012-01-28, 00:20:04,VALID,916.987,VALID,0,VALID,95.7349,VALID,0,VALID,20.4993,VALID,11,VALID,0.0464844,
2012-01-28, 00:21:04,VALID,916.944,VALID,0,VALID,95.7501,VALID,0,VALID,20.5204,VALID,11,VALID,0.372266,
2012-01-28, 00:22:04,VALID,916.943,VALID,0,VALID,95.7654,VALID,0,VALID,20.5204,VALID,11,VALID,0.286328,
2012-01-28, 00:23:04,VALID,916.92,VALID,0,VALID,95.7196,VALID,0,VALID,20.5204,VALID,11,VALID,0.540234,
2012-01-28, 00:24:04,VALID,916.889,VALID,0,VALID,95.59,VALID,0,VALID,20.4618,VALID,11,VALID,0.522266,
2012-01-28, 00:25:04,VALID,916.841,VALID,0,VALID,95.59,VALID,0,VALID,20.4213,VALID,11,VALID,0.49375,
2012-01-28, 00:26:04,VALID,916.836,VALID,0,VALID,95.6586,VALID,0,VALID,20.4228,VALID,11,VALID,0.649609,
2012-01-28, 00:27:04,VALID,916.782,VALID,0,VALID,95.651,VALID,0,VALID,20.3628,VALID,11,VALID,0.591406,
2012-01-28, 00:28:04,VALID,916.786,VALID,0,VALID,95.7044,VALID,0,VALID,20.3659,VALID,11,VALID,0.441406,
2012-01-28, 00:29:04,VALID,916.797,VALID,0,VALID,95.7577,VALID,0,VALID,20.3659,VALID,11,VALID,0.325391,
2012-01-28, 00:30:04,VALID,916.816,VALID,0,VALID,95.7654,VALID,0,VALID,20.3464,VALID,11,VALID,0.386719,
2012-01-28, 00:31:04,VALID,916.81,VALID,0,VALID,95.6815,VALID,0,VALID,20.3269,VALID,11,VALID,0.417969,
2012-01-28, 00:32:04,VALID,916.787,VALID,0,VALID,95.6357,VALID,0,VALID,20.2879,VALID,11,VALID,0.812109,
2012-01-28, 00:33:04,VALID,916.743,VALID,0,VALID,95.6891,VALID,0,VALID,20.2684,VALID,11,VALID,0.777344,
2012-01-28, 00:34:04,VALID,916.687,VALID,0,VALID,95.6053,VALID,0,VALID,20.2098,VALID,11,VALID,0.643359,
2012-01-28, 00:35:04,VALID,916.667,VALID,0,VALID,95.5671,VALID,0,VALID,20.1318,VALID,11,VALID,1.08047,
2012-01-28, 00:36:04,VALID,916.662,VALID,0,VALID,95.712,VALID,0,VALID,20.1513,VALID,11,VALID,0.943359,
2012-01-28, 00:37:04,VALID,916.673,VALID,0,VALID,95.9102,VALID,0,VALID,20.1513,VALID,11,VALID,0.938281,
2012-01-28, 00:38:04,VALID,916.721,VALID,0,VALID,96.0474,VALID,0,VALID,20.1708,VALID,11,VALID,0.714063,
2012-01-28, 00:39:04,VALID,916.701,VALID,0,VALID,96.1465,VALID,0,VALID,20.1903,VALID,11,VALID,0.55625,
2012-01-28, 00:40:04,VALID,916.707,VALID,0,VALID,96.116,VALID,0,VALID,20.1919,VALID,11,VALID,0.503125,
2012-01-28, 00:41:04,VALID,916.672,VALID,0,VALID,96.1313,VALID,0,VALID,20.1498,VALID,11,VALID,0.741797,
2012-01-28, 00:42:04,VALID,916.669,VALID,0,VALID,95.9941,VALID,0,VALID,20.1123,VALID,11,VALID,0.594922,
2012-01-28, 00:43:04,VALID,916.612,VALID,0,VALID,96.055,VALID,0,VALID,20.0913,VALID,11,VALID,0.846094,
2012-01-28, 00:44:04,VALID,916.6,VALID,0,VALID,96.2304,VALID,0,VALID,20.1318,VALID,11,VALID,0.687891,
2012-01-28, 00:45:04,VALID,916.598,VALID,0,VALID,96.2075,VALID,0,VALID,20.1303,VALID,11,VALID,0.463281,
2012-01-28, 00:46:04,VALID,916.611,VALID,0,VALID,96.1541,VALID,0,VALID,20.1123,VALID,11,VALID,0.542578,
2012-01-28, 00:47:04,VALID,916.659,VALID,0,VALID,96.1008,VALID,0,VALID,20.0718,VALID,11,VALID,0.279687,
2012-01-28, 00:48:04,VALID,916.655,VALID,0,VALID,96.1541,VALID,0,VALID,20.0718,VALID,11,VALID,0.59375,
2012-01-28, 00:49:04,VALID,916.676,VALID,0,VALID,96.2533,VALID,0,VALID,20.0733,VALID,11,VALID,0.429688,
2012-01-28, 00:50:04,VALID,916.639,VALID,0,VALID,96.3676,VALID,0,VALID,20.1318,VALID,11,VALID,0.582031,
2012-01-28, 00:51:04,VALID,916.639,VALID,0,VALID,96.3371,VALID,0,VALID,20.1303,VALID,11,VALID,0.346094,
2012-01-28, 00:52:04,VALID,916.57,VALID,0,VALID,96.3371,VALID,0,VALID,20.1108,VALID,11,VALID,0.682031,
2012-01-28, 00:53:04,VALID,916.585,VALID,0,VALID,96.2609,VALID,0,VALID,20.0523,VALID,11,VALID,0.378125,
2012-01-28, 00:54:04,VALID,916.598,VALID,0,VALID,96.3066,VALID,0,VALID,20.0328,VALID,11,VALID,0.608984,
2012-01-28, 00:55:04,VALID,916.614,VALID,0,VALID,96.36,VALID,0,VALID,20.0328,VALID,11,VALID,0.626562,
2012-01-28, 00:56:04,VALID,916.658,VALID,0,VALID,96.4591,VALID,0,VALID,20.0523,VALID,11,VALID,0.482812,
2012-01-28, 00:57:04,VALID,916.653,VALID,0,VALID,96.4743,VALID,0,VALID,20.0718,VALID,11,VALID,0.102344,
2012-01-28, 00:58:04,VALID,916.614,VALID,0,VALID,96.4972,VALID,0,VALID,20.0928,VALID,11,VALID,0,
2012-01-28, 00:59:04,VALID,916.549,VALID,0,VALID,96.4819,VALID,0,VALID,20.0928,VALID,11,VALID,0.492188,
2012-01-28, 01:00:04,VALID,916.539,VALID,0,VALID,96.4819,VALID,0,VALID,20.0538,VALID,11,VALID,0.6875,
2012-01-28, 01:01:04,VALID,916.53,VALID,0,VALID,96.3981,VALID,0,VALID,20.0343,VALID,11,VALID,0.469141,
2012-01-28, 01:02:04,VALID,916.514,VALID,0,VALID,96.3676,VALID,0,VALID,19.9953,VALID,11,VALID,0.328906,
2012-01-28, 01:03:04,VALID,916.517,VALID,0,VALID,96.3295,VALID,0,VALID,19.9773,VALID,11,VALID,0.330859,
2012-01-28, 01:04:04,VALID,916.507,VALID,0,VALID,96.3066,VALID,0,VALID,19.8978,VALID,11,VALID,0.59375,
2012-01-28, 01:05:04,VALID,916.542,VALID,0,VALID,96.3371,VALID,0,VALID,19.8603,VALID,11,VALID,0.564062,
2012-01-28, 01:06:04,VALID,916.514,VALID,0,VALID,96.3981,VALID,0,VALID,19.8393,VALID,11,VALID,0.403125,
2012-01-28, 01:07:04,VALID,916.48,VALID,0,VALID,96.421,VALID,0,VALID,19.8198,VALID,11,VALID,0.474609,
2012-01-28, 01:08:04,VALID,916.468,VALID,0,VALID,96.4286,VALID,0,VALID,19.8003,VALID,11,VALID,0.258594,
2012-01-28, 01:09:04,VALID,916.465,VALID,0,VALID,96.299,VALID,0,VALID,19.7628,VALID,11,VALID,0.241797,
2012-01-28, 01:10:04,VALID,916.466,VALID,0,VALID,96.4972,VALID,0,VALID,19.7808,VALID,11,VALID,0.241016,
2012-01-28, 01:11:04,VALID,916.436,VALID,0,VALID,96.6268,VALID,0,VALID,19.8393,VALID,11,VALID,0.441797,
2012-01-28, 01:12:04,VALID,916.402,VALID,0,VALID,96.6115,VALID,0,VALID,19.8588,VALID,11,VALID,0.392578,
2012-01-28, 01:13:04,VALID,916.432,VALID,0,VALID,96.6115,VALID,0,VALID,19.8573,VALID,11,VALID,0.513672,
2012-01-28, 01:14:04,VALID,916.394,VALID,0,VALID,96.642,VALID,0,VALID,19.8378,VALID,11,VALID,0,
2012-01-28, 01:15:04,VALID,916.378,VALID,0,VALID,96.6268,VALID,0,VALID,19.8573,VALID,11,VALID,0,
2012-01-28, 01:16:04,VALID,916.402,VALID,0,VALID,96.5811,VALID,0,VALID,19.8183,VALID,11,VALID,0,
2012-01-28, 01:17:04,VALID,916.406,VALID,0,VALID,96.5658,VALID,0,VALID,19.7988,VALID,11,VALID,0.165625,
2012-01-28, 01:18:04,VALID,916.427,VALID,0,VALID,96.5734,VALID,0,VALID,19.7793,VALID,11,VALID,0.263281,
2012-01-28, 01:19:04,VALID,916.444,VALID,0,VALID,96.4438,VALID,0.107441,VALID,19.7013,VALID,11,VALID,0.580859,
2012-01-28, 01:20:04,VALID,916.458,VALID,0,VALID,96.5734,VALID,0,VALID,19.7013,VALID,11,VALID,0.530469,
2012-01-28, 01:21:04,VALID,916.427,VALID,0,VALID,96.6802,VALID,0,VALID,19.7013,VALID,11,VALID,0.376172,
2012-01-28, 01:22:04,VALID,916.41,VALID,0,VALID,96.6573,VALID,0,VALID,19.7013,VALID,11,VALID,0.494922,
2012-01-28, 01:23:04,VALID,916.403,VALID,0,VALID,96.6954,VALID,0,VALID,19.6818,VALID,11,VALID,0.684766,
2012-01-28, 01:24:04,VALID,916.415,VALID,0,VALID,96.6954,VALID,0,VALID,19.7013,VALID,11,VALID,0.565625,
2012-01-28, 01:25:04,VALID,916.426,VALID,0,VALID,96.6573,VALID,0,VALID,19.6833,VALID,11,VALID,0.657422,
2012-01-28, 01:26:04,VALID,916.437,VALID,0,VALID,96.7183,VALID,0,VALID,19.6833,VALID,11,VALID,0.808984,
2012-01-28, 01:27:04,VALID,916.494,VALID,0,VALID,96.7488,VALID,0,VALID,19.6623,VALID,11,VALID,0.524609,
2012-01-28, 01:28:04,VALID,916.505,VALID,0,VALID,96.7793,VALID,0,VALID,19.7028,VALID,11,VALID,0.358203,
2012-01-28, 01:29:04,VALID,916.532,VALID,0,VALID,96.8555,VALID,0,VALID,19.7223,VALID,11,VALID,0.152344,
2012-01-28, 01:30:04,VALID,916.551,VALID,0,VALID,96.8403,VALID,0,VALID,19.7418,VALID,11,VALID,0,
2012-01-28, 01:31:04,VALID,916.555,VALID,0,VALID,96.7793,VALID,0,VALID,19.7223,VALID,11,VALID,0.157422,
2012-01-28, 01:32:04,VALID,916.536,VALID,0,VALID,96.8403,VALID,0,VALID,19.7418,VALID,11,VALID,0.226172,
2012-01-28, 01:33:04,VALID,916.577,VALID,0,VALID,96.8631,VALID,0,VALID,19.7208,VALID,11,VALID,0.544531,
2012-01-28, 01:34:04,VALID,916.575,VALID,0,VALID,96.8936,VALID,0,VALID,19.7403,VALID,10,VALID,0.674609,
2012-01-28, 01:35:04,VALID,916.558,VALID,0,VALID,96.8098,VALID,0,VALID,19.7223,VALID,11,VALID,0.647266,
2012-01-28, 01:36:04,VALID,916.555,VALID,0,VALID,96.9317,VALID,0,VALID,19.7418,VALID,11,VALID,0.848437,
2012-01-28, 01:37:04,VALID,916.563,VALID,0,VALID,96.9241,VALID,0,VALID,19.7208,VALID,10,VALID,1.00664,
2012-01-28, 01:38:04,VALID,916.595,VALID,0,VALID,96.9012,VALID,0,VALID,19.7613,VALID,10,VALID,1.04141,
2012-01-28, 01:39:04,VALID,916.578,VALID,0,VALID,96.9241,VALID,0,VALID,19.7403,VALID,11,VALID,0.999609,
2012-01-28, 01:40:04,VALID,916.638,VALID,0,VALID,96.8936,VALID,0,VALID,19.7403,VALID,11,VALID,0.964844,
2012-01-28, 01:41:04,VALID,916.649,VALID,0,VALID,96.9089,VALID,0,VALID,19.7208,VALID,11,VALID,0.74375,
2012-01-28, 01:42:04,VALID,916.618,VALID,0,VALID,96.8631,VALID,0,VALID,19.7013,VALID,11,VALID,0.771094,
2012-01-28, 01:43:04,VALID,916.609,VALID,0,VALID,96.8784,VALID,0,VALID,19.6833,VALID,11,VALID,1.14766,
2012-01-28, 01:44:04,VALID,916.604,VALID,0,VALID,96.9012,VALID,0,VALID,19.6428,VALID,11,VALID,0.913672,
2012-01-28, 01:45:04,VALID,916.609,VALID,0,VALID,96.947,VALID,0,VALID,19.6833,VALID,356,VALID,0.914453,
2012-01-28, 01:46:04,VALID,916.589,VALID,0,VALID,96.9394,VALID,0,VALID,19.6638,VALID,356,VALID,0.853906,
2012-01-28, 01:47:04,VALID,916.58,VALID,0,VALID,96.947,VALID,0,VALID,19.6833,VALID,356,VALID,1.07539,
2012-01-28, 01:48:04,VALID,916.576,VALID,0,VALID,96.8631,VALID,0,VALID,19.6638,VALID,356,VALID,0.877344,
2012-01-28, 01:49:04,VALID,916.515,VALID,0,VALID,96.8784,VALID,0,VALID,19.6428,VALID,356,VALID,1.03516,
2012-01-28, 01:50:04,VALID,916.508,VALID,0,VALID,96.8021,VALID,0,VALID,19.6038,VALID,14,VALID,1.05938,
2012-01-28, 01:51:04,VALID,916.511,VALID,0,VALID,96.8707,VALID,0,VALID,19.6248,VALID,14,VALID,0.930078,
2012-01-28, 01:52:04,VALID,916.53,VALID,0,VALID,96.8098,VALID,0,VALID,19.6053,VALID,15,VALID,0.846094,
2012-01-28, 01:53:04,VALID,916.53,VALID,0,VALID,96.8098,VALID,0,VALID,19.5843,VALID,14,VALID,0.971094,
2012-01-28, 01:54:04,VALID,916.487,VALID,0,VALID,96.7945,VALID,0,VALID,19.5648,VALID,14,VALID,0.875781,
2012-01-28, 01:55:04,VALID,916.466,VALID,0,VALID,96.7945,VALID,0,VALID,19.5453,VALID,14,VALID,1.0332,
2012-01-28, 01:56:04,VALID,916.477,VALID,0,VALID,96.7183,VALID,0,VALID,19.5273,VALID,14,VALID,1.09258,
2012-01-28, 01:57:04,VALID,916.398,VALID,0,VALID,96.7716,VALID,0,VALID,19.5078,VALID,15,VALID,0.745313,
2012-01-28, 01:58:04,VALID,916.416,VALID,0,VALID,96.764,VALID,0,VALID,19.5078,VALID,14,VALID,0.553906,
2012-01-28, 01:59:04,VALID,916.409,VALID,0,VALID,96.8174,VALID,0,VALID,19.5273,VALID,14,VALID,0.366016,
2012-01-28, 02:00:04,VALID,916.403,VALID,0,VALID,96.8021,VALID,0,VALID,19.5258,VALID,14,VALID,0.146484,
2012-01-28, 02:01:04,VALID,916.387,VALID,0,VALID,96.8021,VALID,0,VALID,19.5273,VALID,14,VALID,0.0015625,
2012-01-28, 02:02:04,VALID,916.405,VALID,0,VALID,96.8174,VALID,0,VALID,19.5468,VALID,14,VALID,0,
2012-01-28, 02:03:04,VALID,916.384,VALID,0,VALID,96.8021,VALID,0,VALID,19.5453,VALID,14,VALID,0.207031,
2012-01-28, 02:04:04,VALID,916.361,VALID,0,VALID,96.7793,VALID,0,VALID,19.5858,VALID,14,VALID,0.191406,
2012-01-28, 02:05:04,VALID,916.296,VALID,0,VALID,96.6954,VALID,0,VALID,19.5468,VALID,14,VALID,0.403906,
2012-01-28, 02:06:04,VALID,916.312,VALID,0,VALID,96.6954,VALID,0,VALID,19.5063,VALID,14,VALID,0.591797,
2012-01-28, 02:07:04,VALID,916.321,VALID,0,VALID,96.5887,VALID,0,VALID,19.5078,VALID,14,VALID,0.438672,
2012-01-28, 02:08:04,VALID,916.329,VALID,0,VALID,96.7183,VALID,0,VALID,19.5078,VALID,14,VALID,0.504687,
2012-01-28, 02:09:04,VALID,916.295,VALID,0,VALID,96.7869,VALID,0,VALID,19.4673,VALID,14,VALID,0.679688,
2012-01-28, 02:10:04,VALID,916.354,VALID,0,VALID,96.8326,VALID,0,VALID,19.5468,VALID,14,VALID,0.733984,
2012-01-28, 02:11:04,VALID,916.372,VALID,0,VALID,96.6802,VALID,0,VALID,19.5273,VALID,14,VALID,0.785937,
2012-01-28, 02:12:04,VALID,916.332,VALID,0,VALID,96.6878,VALID,0,VALID,19.5273,VALID,14,VALID,0.539453,
2012-01-28, 02:13:04,VALID,916.353,VALID,0,VALID,96.7107,VALID,0,VALID,19.5078,VALID,14,VALID,0.555469,
2012-01-28, 02:14:04,VALID,916.345,VALID,0,VALID,96.6725,VALID,0,VALID,19.5273,VALID,14,VALID,0.597656,
2012-01-28, 02:15:04,VALID,916.332,VALID,0,VALID,96.5963,VALID,0,VALID,19.5078,VALID,14,VALID,0.594922,
2012-01-28, 02:16:04,VALID,916.324,VALID,0,VALID,96.5124,VALID,0,VALID,19.4688,VALID,14,VALID,0.661719,
2012-01-28, 02:17:04,VALID,916.303,VALID,0,VALID,96.5506,VALID,0,VALID,19.4493,VALID,14,VALID,0.344531,
2012-01-28, 02:18:04,VALID,916.218,VALID,0,VALID,96.5506,VALID,0,VALID,19.4688,VALID,14,VALID,0.340234,
2012-01-28, 02:19:04,VALID,916.151,VALID,0,VALID,96.5124,VALID,0,VALID,19.4688,VALID,14,VALID,0.323047,
2012-01-28, 02:20:04,VALID,916.129,VALID,0,VALID,96.4286,VALID,0,VALID,19.4313,VALID,14,VALID,0.434375,
2012-01-28, 02:21:04,VALID,916.102,VALID,0,VALID,96.4667,VALID,0,VALID,19.4313,VALID,14,VALID,0.245312,
2012-01-28, 02:22:04,VALID,916.105,VALID,0,VALID,96.5124,VALID,0,VALID,19.4508,VALID,14,VALID,0.517578,
2012-01-28, 02:23:04,VALID,916.091,VALID,0,VALID,96.6115,VALID,0,VALID,19.4088,VALID,14,VALID,0.606641,
2012-01-28, 02:24:04,VALID,916.106,VALID,0,VALID,96.6497,VALID,0,VALID,19.4658,VALID,14,VALID,0.545703,
2012-01-28, 02:25:04,VALID,916.092,VALID,0,VALID,96.5811,VALID,0,VALID,19.5273,VALID,14,VALID,0.492969,
2012-01-28, 02:26:04,VALID,916.062,VALID,0,VALID,96.5353,VALID,0,VALID,19.5273,VALID,14,VALID,0.739453,
2012-01-28, 02:27:04,VALID,916.085,VALID,0,VALID,96.4743,VALID,0,VALID,19.5858,VALID,15,VALID,0.633594,
2012-01-28, 02:28:04,VALID,916.104,VALID,0,VALID,96.3219,VALID,0,VALID,19.5858,VALID,14,VALID,0.198437,
2012-01-28, 02:29:04,VALID,916.099,VALID,0,VALID,96.1923,VALID,0,VALID,19.5858,VALID,14,VALID,0.278906,
2012-01-28, 02:30:04,VALID,916.098,VALID,0,VALID,96.1236,VALID,0,VALID,19.5663,VALID,14,VALID,0.249219,
2012-01-28, 02:31:04,VALID,916.074,VALID,0,VALID,96.1236,VALID,0,VALID,19.6053,VALID,14,VALID,0.121484,
2012-01-28, 02:32:04,VALID,916.055,VALID,0,VALID,96.0627,VALID,0,VALID,19.5858,VALID,14,VALID,0,
2012-01-28, 02:33:04,VALID,915.994,VALID,0,VALID,95.9559,VALID,0,VALID,19.5858,VALID,14,VALID,0,
2012-01-28, 02:34:04,VALID,915.974,VALID,0,VALID,95.773,VALID,0,VALID,19.5258,VALID,14,VALID,0.175781,
2012-01-28, 02:35:04,VALID,915.947,VALID,0,VALID,95.6891,VALID,0,VALID,19.5078,VALID,14,VALID,0.458594,
2012-01-28, 02:36:04,VALID,915.958,VALID,0,VALID,95.529,VALID,0,VALID,19.4493,VALID,14,VALID,0.398438,
2012-01-28, 02:37:04,VALID,915.956,VALID,0,VALID,95.1783,VALID,0,VALID,19.3323,VALID,14,VALID,0.566406,
2012-01-28, 02:38:04,VALID,915.974,VALID,0,VALID,95.3156,VALID,0,VALID,19.2334,VALID,15,VALID,0.517969,
2012-01-28, 02:39:04,VALID,915.958,VALID,0,VALID,95.651,VALID,0,VALID,19.2933,VALID,14,VALID,0.475,
2012-01-28, 02:40:04,VALID,915.922,VALID,0,VALID,95.8111,VALID,0,VALID,19.3533,VALID,14,VALID,0.388672,
2012-01-28, 02:41:04,VALID,915.917,VALID,0,VALID,95.9026,VALID,0,VALID,19.3308,VALID,14,VALID,0,
2012-01-28, 02:42:04,VALID,915.927,VALID,0,VALID,95.9102,VALID,0,VALID,19.3113,VALID,14,VALID,0,
2012-01-28, 02:43:04,VALID,915.881,VALID,0,VALID,95.7958,VALID,0,VALID,19.2933,VALID,14,VALID,0,
2012-01-28, 02:44:04,VALID,915.832,VALID,0,VALID,95.7654,VALID,0,VALID,19.2933,VALID,14,VALID,0,
2012-01-28, 02:45:04,VALID,915.798,VALID,0,VALID,95.7577,VALID,0,VALID,19.2738,VALID,14,VALID,0,
2012-01-28, 02:46:04,VALID,915.793,VALID,0,VALID,95.8187,VALID,0,VALID,19.2948,VALID,14,VALID,0,
2012-01-28, 02:47:04,VALID,915.813,VALID,0,VALID,95.773,VALID,0,VALID,19.2738,VALID,14,VALID,0,
2012-01-28, 02:48:04,VALID,915.776,VALID,0,VALID,95.651,VALID,0,VALID,19.2348,VALID,14,VALID,0,
2012-01-28, 02:49:04,VALID,915.747,VALID,0,VALID,95.5443,VALID,0,VALID,19.2153,VALID,14,VALID,0,
2012-01-28, 02:50:04,VALID,915.783,VALID,0,VALID,95.529,VALID,0,VALID,19.1554,VALID,14,VALID,0,
2012-01-28, 02:51:04,VALID,915.808,VALID,0,VALID,95.4147,VALID,0,VALID,19.1373,VALID,14,VALID,0,
2012-01-28, 02:52:04,VALID,915.769,VALID,0,VALID,95.3537,VALID,0,VALID,19.1178,VALID,14,VALID,0,
2012-01-28, 02:53:04,VALID,915.788,VALID,0,VALID,95.2851,VALID,0,VALID,19.0983,VALID,14,VALID,0,
2012-01-28, 02:54:04,VALID,915.755,VALID,0,VALID,95.247,VALID,0,VALID,19.0788,VALID,14,VALID,0,
2012-01-28, 02:55:04,VALID,915.717,VALID,0,VALID,95.4604,VALID,0,VALID,19.0788,VALID,14,VALID,0.140234,
2012-01-28, 02:56:04,VALID,915.726,VALID,0,VALID,95.5824,VALID,0,VALID,19.0983,VALID,14,VALID,0.0015625,
2012-01-28, 02:57:04,VALID,915.803,VALID,0,VALID,95.7425,VALID,0,VALID,19.1178,VALID,14,VALID,0,
2012-01-28, 02:58:04,VALID,915.855,VALID,0,VALID,95.8416,VALID,0,VALID,19.1568,VALID,14,VALID,0,
2012-01-28, 02:59:04,VALID,915.812,VALID,0,VALID,95.8416,VALID,0,VALID,19.1554,VALID,14,VALID,0,
2012-01-28, 03:00:04,VALID,915.79,VALID,0,VALID,95.9026,VALID,0,VALID,19.1944,VALID,14,VALID,0,
2012-01-28, 03:01:04,VALID,915.792,VALID,0,VALID,95.7882,VALID,0,VALID,19.2153,VALID,14,VALID,0,
2012-01-28, 03:02:04,VALID,915.788,VALID,0,VALID,95.6891,VALID,0,VALID,19.1958,VALID,14,VALID,0,
2012-01-28, 03:03:04,VALID,915.8,VALID,0,VALID,95.6357,VALID,0,VALID,19.1749,VALID,14,VALID,0.268359,
2012-01-28, 03:04:04,VALID,915.812,VALID,0,VALID,95.468,VALID,0,VALID,19.1568,VALID,14,VALID,0.316797,
2012-01-28, 03:05:04,VALID,915.791,VALID,0,VALID,95.6891,VALID,0,VALID,19.1359,VALID,14,VALID,0.560156,
2012-01-28, 03:06:04,VALID,915.777,VALID,0,VALID,95.9864,VALID,0,VALID,19.1958,VALID,14,VALID,0.734766,
2012-01-28, 03:07:04,VALID,915.791,VALID,0,VALID,96.0474,VALID,0,VALID,19.1944,VALID,14,VALID,0.678125,
2012-01-28, 03:08:04,VALID,915.742,VALID,0,VALID,96.116,VALID,0,VALID,19.2139,VALID,14,VALID,0.76875,
2012-01-28, 03:09:04,VALID,915.695,VALID,0,VALID,96.1389,VALID,0.107441,VALID,19.2153,VALID,14,VALID,0.728125,
2012-01-28, 03:10:04,VALID,915.711,VALID,0,VALID,96.1389,VALID,0,VALID,19.1958,VALID,14,VALID,0.636719,
2012-01-28, 03:11:04,VALID,915.748,VALID,0,VALID,96.2075,VALID,0,VALID,19.1749,VALID,14,VALID,0.689453,
2012-01-28, 03:12:04,VALID,915.742,VALID,0,VALID,96.2609,VALID,0,VALID,19.1944,VALID,14,VALID,0.611719,
2012-01-28, 03:13:04,VALID,915.742,VALID,0,VALID,96.3066,VALID,0,VALID,19.2153,VALID,14,VALID,0.682422,
2012-01-28, 03:14:04,VALID,915.703,VALID,0,VALID,96.1541,VALID,0,VALID,19.1958,VALID,14,VALID,0.449219,
2012-01-28, 03:15:04,VALID,915.67,VALID,0,VALID,96.1618,VALID,0,VALID,19.1763,VALID,14,VALID,0.466797,
2012-01-28, 03:16:04,VALID,915.673,VALID,0,VALID,96.1618,VALID,0,VALID,19.1373,VALID,14,VALID,0.416016,
2012-01-28, 03:17:04,VALID,915.718,VALID,0,VALID,96.177,VALID,0,VALID,19.1373,VALID,14,VALID,0.132813,
2012-01-28, 03:18:04,VALID,915.745,VALID,0,VALID,96.2837,VALID,0.107441,VALID,19.1373,VALID,14,VALID,0.0183594,
2012-01-28, 03:19:04,VALID,915.772,VALID,0,VALID,96.1084,VALID,0,VALID,19.1178,VALID,14,VALID,0,
2012-01-28, 03:20:04,VALID,915.813,VALID,0,VALID,96.1846,VALID,0,VALID,19.0983,VALID,14,VALID,0.580469,
2012-01-28, 03:21:04,VALID,915.829,VALID,0,VALID,95.834,VALID,0,VALID,19.0203,VALID,14,VALID,0.692187,
2012-01-28, 03:22:04,VALID,915.784,VALID,0,VALID,95.9941,VALID,0,VALID,18.9814,VALID,14,VALID,0.663281,
2012-01-28, 03:23:04,VALID,915.793,VALID,0,VALID,95.8263,VALID,0,VALID,18.9229,VALID,14,VALID,0.432031,
2012-01-28, 03:24:04,VALID,915.779,VALID,0,VALID,95.9331,VALID,0,VALID,18.9048,VALID,14,VALID,0.469141,
2012-01-28, 03:25:04,VALID,915.811,VALID,0,VALID,95.9788,VALID,0,VALID,18.8839,VALID,14,VALID,0.532031,
2012-01-28, 03:26:04,VALID,915.806,VALID,0,VALID,96.116,VALID,0,VALID,18.8839,VALID,344,VALID,0.917969,
2012-01-28, 03:27:04,VALID,915.791,VALID,0,VALID,96.2837,VALID,0,VALID,18.9229,VALID,344,VALID,0.758984,
2012-01-28, 03:28:04,VALID,915.769,VALID,0,VALID,96.3447,VALID,0,VALID,18.9424,VALID,344,VALID,0.397656,
2012-01-28, 03:29:04,VALID,915.727,VALID,0,VALID,96.3219,VALID,0,VALID,18.9619,VALID,344,VALID,0.194141,
2012-01-28, 03:30:04,VALID,915.722,VALID,0,VALID,96.3295,VALID,0,VALID,18.9633,VALID,344,VALID,0.256641,
2012-01-28, 03:31:04,VALID,915.767,VALID,0,VALID,96.3676,VALID,0,VALID,18.9619,VALID,344,VALID,0.313281,
2012-01-28, 03:32:04,VALID,915.763,VALID,0,VALID,96.055,VALID,0,VALID,18.8824,VALID,344,VALID,0.648438,
2012-01-28, 03:33:04,VALID,915.758,VALID,0,VALID,95.8721,VALID,0,VALID,18.8254,VALID,344,VALID,1.1918,
2012-01-28, 03:34:04,VALID,915.722,VALID,0,VALID,96.1923,VALID,0,VALID,18.8434,VALID,11,VALID,1.11602,
2012-01-28, 03:35:04,VALID,915.733,VALID,0,VALID,96.2685,VALID,0,VALID,18.9034,VALID,11,VALID,1.18789,
2012-01-28, 03:36:04,VALID,915.753,VALID,0,VALID,96.2228,VALID,0,VALID,18.9229,VALID,11,VALID,0.817578,
2012-01-28, 03:37:04,VALID,915.738,VALID,0,VALID,96.1846,VALID,0,VALID,18.9034,VALID,11,VALID,0.653516,
2012-01-28, 03:38:04,VALID,915.731,VALID,0,VALID,96.238,VALID,0,VALID,18.9229,VALID,11,VALID,0.780078,
2012-01-28, 03:39:04,VALID,915.681,VALID,0,VALID,96.0627,VALID,0,VALID,18.8839,VALID,11,VALID,1.22891,
2012-01-28, 03:40:04,VALID,915.659,VALID,0,VALID,95.9788,VALID,0,VALID,18.8254,VALID,18,VALID,1.275,
2012-01-28, 03:41:04,VALID,915.664,VALID,0,VALID,95.8645,VALID,0,VALID,18.7878,VALID,24,VALID,0.793359,
2012-01-28, 03:42:04,VALID,915.642,VALID,0,VALID,96.0627,VALID,0,VALID,18.8059,VALID,237,VALID,0.9,
2012-01-28, 03:43:04,VALID,915.641,VALID,0,VALID,96.1846,VALID,0,VALID,18.8254,VALID,237,VALID,0.816406,
2012-01-28, 03:44:04,VALID,915.687,VALID,0,VALID,96.2914,VALID,0,VALID,18.8449,VALID,237,VALID,0.0351563,
2012-01-28, 03:45:04,VALID,915.683,VALID,0,VALID,96.3295,VALID,0,VALID,18.8658,VALID,237,VALID,0,
2012-01-28, 03:46:04,VALID,915.682,VALID,0,VALID,96.3752,VALID,0,VALID,18.8644,VALID,237,VALID,0,
2012-01-28, 03:47:04,VALID,915.698,VALID,0,VALID,96.4133,VALID,0,VALID,18.9048,VALID,237,VALID,0.361328,
2012-01-28, 03:48:04,VALID,915.727,VALID,0,VALID,96.4896,VALID,0,VALID,18.9229,VALID,237,VALID,0.557422,